Location: Tauranga
(37.6860°S, 176.1670°E)
Time: 04:57:11
(UTC+13:00)

Cosmos 1709 Rocket - Pass Details

Date: 24 January 2019
Orbit: 949 x 1001 km, 82.9° (Epoch: 15 October)

Event Time Altitude Azimuth Distance (km) Brightness Sun altitude
Exits shadow 23:21:09 62° 24° (NNE) 1,109 3.9 -25.8°
Maximum altitude 23:22:13 76° 85° (E) 1,021 3.9 -25.9°
Drops below altitude 10° 23:28:30 10° 170° (S) 2,744 6.9 -26.6°
Sets 23:31:01 0° 171° (S) 3,690 7.7 -26.9°
